sat.trackr.live / text

‹ back to catalog

ORBCOMM FM108

NORAD 41187 · 2015-081J

PAYLOAD ACTIVE UNKNOWN

§ Identity

Operator
Country
ORB
Launch date
2015-12-22
Launch site
AFETR
Launch vehicle
Mass (kg)
RCS (m²)
0.53

Purposes: comms

External: N2YO · Heavens-Above · Gunter

§ Orbital elements

Epoch: 2026-05-25T03:19:34.792032Z

Period
98.71 min
Inclination
47.0053°
Eccentricity
0.0001901
Mean motion
14.58833186 rev/d
Perigee alt
695.6 km
Apogee alt
698.3 km
Semi-major
7,075.1 km
B*
1.5475e-4
RAAN
291.1674°
Arg perigee
104.0259°
Mean anomaly
256.0838°
Rev number
55,671

§ Raw data

ORBCOMM FM1081 41187U 15081J   26145.13859713  .00000560  00000+0  15475-3 0  99962 41187  47.0053 291.1674 0001901 104.0259 256.0838 14.58833186556717

JSON: /api/v1/satellites/41187 · /tle

For live sub-satellite position, see the globe view (requires WebGL).

§ Visibility from observer

Set your observer location to see the next 7 days of passes ≥ 10°. The values pass through the URL so the page stays shareable.

No JS? Fill the form by hand. The geolocation button needs JavaScript.

§ Radio — SatNOGS DB

ModeDescriptionDownlinkUplink
FM Telemetry 137.713 MHz
FM Telemetry 137.460 MHz

2 transmitters · refreshed weekly from db.satnogs.org